{"data":{"norad_id":40277,"epoch":"2026-05-24T22:51:40.315680Z","epoch_age_seconds":85964,"freshness":"FRESH","line1":"1 40277U 14064A   26144.95254995  .00000095  00000+0  00000+0 0  9992","line2":"2 40277   0.0164 286.3028 0000299 268.5614  83.6036  1.00272186 41338","mean_motion":1.00272186,"eccentricity":2.99e-5,"inclination_deg":0.0164,"raan_deg":286.3028,"arg_perigee_deg":268.5614,"mean_anomaly_deg":83.6036,"bstar":0,"rev_number":4133,"period_min":1436.0911609128,"perigee_km":35785.221824584,"apogee_km":35787.743268833,"semimajor_km":42164.619546709,"source":"CELESTRAK","updated_at":"2026-05-25T13:38:13.953004Z"}}